Flag for Ireland Weather past 2 weeks in Dublin, Ireland

Now
46 °F

Scattered showers. Scattered clouds.


Feels Like: 38 °F
Forecast: 35 / 52 °F
Wind: 26 mph from West

Location: Dublin Airport

Current Time: Apr 27, 2015 at 7:14:56 PM

Latest Report: Apr 27, 2015 at 7:00 PM


Visibility: N/A

Pressure: 29.77 "Hg

Humidity: 50%

Dew point: 28 °F

Location of DublinLocation

Historic Weather in Dublin — Graph

°F

Dublin temperature yesterday

Maximum temperature yesterday: 48 °F (at 1:00 PM)
Minimum temperature yesterday: 28 °F (at 4:00 AM)
Average temperature yesterday: 39 °F

Past Weeks' High & Low Weather Summary

 TemperatureHumidityPressure
High63 °F (Apr 14, 6:00 PM)100% (Apr 16, 12:30 AM)30.63 "Hg (Apr 16, 12:30 AM)
Low28 °F (Apr 26, 4:00 AM)39% (Apr 14, 6:30 PM)29.53 "Hg (Apr 25, 3:30 AM)
Average46 °F79%30.14 "Hg
* Reported Apr 12 6:00 PM — Apr 27 6:00 PM, Dublin, Weather by CustomWeather, © 2015

Note: Actual official high and low records may vary slightly from our data, if they occured in-between our weather recording intervals... More about our weather records

Advertising

Dublin weather history for previous 24 hours

 ConditionsComfort  
Time TempWeatherWind HumidityBarometerVisibility
6:00 PM
Mon, Apr 27
46 °FScattered clouds.28 mph46%29.77 "HgN/A
5:30 PM48 °FScattered showers. Scattered clouds.24 mph46%29.77 "HgN/A
5:00 PM48 °FScattered showers. Scattered clouds.24 mph46%29.77 "HgN/A
4:30 PM48 °FScattered showers. Broken clouds.21 mph54%29.77 "HgN/A
4:00 PM46 °FSprinkles. Broken clouds.16 mph66%29.77 "HgN/A
3:30 PM43 °FBroken clouds.8 mph81%29.80 "HgN/A
3:00 PM41 °FBroken clouds.9 mph87%29.80 "HgN/A
2:30 PM39 °FSprinkles. Broken clouds.12 mph87%29.83 "Hg3 mi
2:00 PM45 °FScattered showers. Broken clouds.15 mph76%29.80 "HgN/A
1:30 PM45 °FSprinkles. Broken clouds.17 mph71%29.80 "HgN/A
1:00 PM43 °FSprinkles. Broken clouds.20 mph81%29.83 "HgN/A
12:30 PM46 °FSprinkles. Broken clouds.17 mph57%29.80 "HgN/A
12:00 PM48 °FScattered clouds.16 mph54%29.83 "HgN/A
11:30 AM46 °FScattered clouds.15 mph57%29.83 "HgN/A
11:00 AM46 °FPassing clouds.15 mph57%29.86 "HgN/A
10:30 AM45 °FPassing clouds.16 mph66%29.86 "HgN/A
10:00 AM45 °FPassing clouds.16 mph66%29.86 "HgN/A
9:30 AM43 °FPassing clouds.12 mph71%29.86 "HgN/A
9:00 AM41 °FPassing clouds.9 mph76%29.86 "HgN/A
8:30 AM39 °FPassing clouds.9 mph81%29.86 "HgN/A
8:00 AM37 °FPassing clouds.8 mph87%29.86 "HgN/A
7:30 AM36 °FPassing clouds.7 mph93%29.86 "HgN/A
7:00 AM34 °FPassing clouds.5 mph93%29.89 "HgN/A
6:30 AM32 °FPassing clouds.7 mph100%29.89 "HgN/A
6:00 AM32 °FPassing clouds.6 mph93%29.89 "HgN/A
5:30 AM30 °FPassing clouds.6 mph100%29.89 "HgN/A
5:00 AM32 °FPassing clouds.7 mph93%29.89 "HgN/A
4:30 AM30 °FPassing clouds.7 mph100%29.89 "HgN/A
4:00 AM30 °FPassing clouds.7 mph93%29.89 "HgN/A
3:30 AM32 °FPassing clouds.8 mph93%29.89 "HgN/A
3:00 AM30 °FPassing clouds.8 mph93%29.89 "HgN/A
2:30 AM30 °FPassing clouds.8 mph100%29.92 "HgN/A
2:00 AM30 °FPassing clouds.7 mph93%29.92 "HgN/A
1:30 AM32 °FPassing clouds.8 mph93%29.92 "HgN/A
1:00 AM32 °FPassing clouds.6 mph100%29.92 "HgN/A
12:30 AM30 °FPassing clouds.7 mph93%29.92 "HgN/A
12:00 AM30 °FPassing clouds.6 mph100%29.92 "HgN/A
11:30 PM
Sun, Apr 26
30 °FPassing clouds.7 mph100%29.92 "HgN/A
11:00 PM32 °FPassing clouds.5 mph93%29.92 "HgN/A
10:30 PM34 °FPassing clouds.5 mph93%29.92 "HgN/A
10:00 PM36 °FPassing clouds.6 mph87%29.92 "HgN/A
9:30 PM37 °FScattered clouds.8 mph87%29.92 "HgN/A
9:00 PM37 °FScattered clouds.6 mph87%29.89 "HgN/A
8:30 PM39 °FScattered clouds.5 mph81%29.89 "HgN/A
8:00 PM43 °FScattered clouds.6 mph81%29.89 "HgN/A
7:30 PM43 °FScattered clouds.5 mph76%29.89 "HgN/A
7:00 PM43 °FScattered clouds.6 mph76%29.89 "HgN/A
Weather by CustomWeather, © 2015

See weather overviewHow to use our weather pages